Wind_Speed
12 9 8 2 4 11 15 18 21 25 27 21 18 18 15 13 14 16 16 25 27 28 25 22 18 17 18 21 26 27 26 27 26 27 29 32 35 37 37 39 40 38 40 42
17 16 9 1 11 11 15 18 21 24 22 18 18 12 16 15 17 19 21 25 24 20 17 14 15 19 22 26 26 24 24 27 26 26 29 33 35 37 37 39 41 40 39 39
19 17 1 3 8 14 15 19 22 19 17 11 11 13 15 16 21 23 24 26 20 16 15 15 17 21 25 28 27 25 26 28 27 27 29 33 36 38 39 39 41 42 40 39
18 9 4 2 9 12 17 19 18 16 13 9 10 17 16 19 18 21 20 22 16 16 18 17 17 21 26 29 25 24 25 27 28 30 31 35 39 40 40 40 40 42 43 42
16 11 6 6 5 13 16 19 22 14 12 13 13 15 17 17 15 16 18 17 22 21 15 15 17 23 27 29 26 25 24 28 29 30 31 34 37 40 41 41 41 42 43 44
14 9 8 4 5 12 17 20 21 18 14 13 16 18 17 20 15 15 18 21 23 30 20 18 20 24 28 29 27 27 24 28 31 32 32 33 37 40 42 43 43 42 43 43
14 9 8 6 9 14 18 22 18 16 15 16 18 18 16 19 18 19 21 24 24 28 25 23 24 25 28 28 29 29 27 29 32 34 33 33 36 39 41 43 45 43 43 43
16 13 12 11 12 14 16 22 21 19 17 16 20 17 15 18 19 20 23 23 25 26 25 23 23 24 26 28 29 30 29 29 31 35 34 32 34 37 40 41 44 45 43 43
15 15 14 14 16 18 19 24 24 20 15 17 18 17 14 16 19 20 23 23 25 28 27 23 22 25 27 28 30 30 30 31 32 34 36 33 33 35 38 39 41 44 45 43
18 16 18 17 17 20 25 29 22 20 17 17 18 17 19 20 19 20 21 22 25 26 28 27 26 27 28 28 30 30 30 31 32 34 35 35 33 34 35 38 39 42 45 43
22 24 20 18 18 21 19 14 20 21 16 17 17 17 20 22 21 20 20 21 25 28 29 30 30 29 28 30 29 28 29 31 32 33 34 36 35 34 34 36 38 40 43 45
29 29 22 21 23 19 17 20 25 24 21 17 19 15 14 17 21 24 21 21 24 27 30 31 32 32 29 29 28 28 29 30 32 33 34 36 38 37 35 35 36 38 40 43
31 29 23 22 22 22 20 22 24 21 18 18 16 16 12 13 17 23 23 23 24 26 27 30 33 32 30 29 28 28 29 29 32 33 33 35 38 39 39 38 36 37 38 40
29 27 28 25 23 23 23 22 21 20 19 21 19 15 12 12 16 20 24 26 26 27 28 28 29 31 29 29 30 30 30 29 30 32 33 34 37 40 39 39 38 36 36 37
27 29 31 29 27 25 26 28 21 18 21 22 21 18 17 16 19 21 24 28 28 29 30 30 29 29 28 29 30 31 31 29 30 31 32 33 35 37 38 39 38 36 37 36
25 26 26 27 27 29 32 31 20 16 18 20 21 23 20 18 20 22 26 29 30 30 31 29 30 30 30 30 31 31 31 29 29 29 31 32 34 36 37 38 38 37 37 36
30 32 30 31 31 31 31 27 22 20 20 22 23 27 26 21 22 25 27 29 29 29 30 31 29 30 30 31 31 31 31 30 28 29 29 32 33 35 36 37 38 37 38 37
28 30 31 29 28 28 23 21 25 24 23 23 25 24 24 26 27 30 30 30 29 29 28 29 30 30 31 31 31 31 31 31 29 28 28 30 33 34 37 37 38 38 38 39
24 26 28 24 23 24 19 17 17 19 20 21 24 25 26 28 30 32 32 31 30 31 30 29 29 30 32 31 32 32 32 31 29 28 28 29 32 34 36 38 38 38 40 40
22 23 25 24 25 25 21 21 20 22 23 25 26 28 28 30 31 35 35 31 33 29 28 29 30 30 32 32 32 33 32 30 28 27 28 29 32 35 36 38 38 38 38 40
22 24 26 26 25 28 26 27 27 27 26 28 28 26 28 30 31 32 31 29 29 28 28 29 30 29 31 32 32 32 31 30 27 27 28 29 31 35 37 38 37 37 38 38
25 24 25 27 26 27 30 33 31 26 27 29 34 35 23 27 30 27 28 27 27 28 27 28 31 31 32 32 32 31 29 31 27 26 27 28 31 34 37 39 40 40 38 36
26 25 24 23 21 28 21 19 20 21 26 17 14 21 22 25 28 29 28 33 32 28 29 29 31 31 32 31 29 32 33 32 26 26 26 28 31 34 36 39 40 39 41 40
24 23 22 20 21 24 21 25 16 11 13 16 18 24 31 27 29 32 33 35 31 29 30 30 31 30 32 30 32 33 30 26 25 26 27 29 32 36 38 39 38 41 43 45
28 27 25 22 23 22 23 20 15 19 19 22 22 23 24 28 31 33 33 33 30 27 28 27 32 33 34 32 32 24 25 27 29 30 31 32 35 37 38 39 39 42 43 48
33 30 28 25 23 21 18 15 18 20 20 21 22 24 26 28 31 31 28 29 31 31 35 36 36 32 28 23 24 24 25 27 32 35 36 37 38 38 40 39 39 42 48 48
Wind_Direction
154 194 222 283 15 18 22 7 358 353 352 358 16 10 22 17 360 1 356 359 359 349 351 347 358 3 4 352 346 344 346 347 345 343 344 345 348 348 348 350 350 347 346 348
176 213 245 304 18 16 10 355 347 344 349 347 3 8 11 6 6 1 5 5 357 356 359 4 1 4 3 359 354 350 350 351 347 346 348 350 351 350 351 353 354 352 349 347
198 230 283 347 338 12 360 341 336 337 346 356 5 10 355 351 4 5 4 359 355 351 359 6 10 7 5 3 359 354 355 352 349 349 351 352 351 354 355 355 355 355 351 346
204 228 246 34 21 357 336 346 343 336 334 355 351 3 350 339 343 352 356 356 4 355 359 0 4 7 7 5 0 356 355 355 354 353 354 355 354 355 357 357 356 355 355 353
212 231 251 283 358 330 334 340 339 342 343 352 351 359 352 6 352 339 344 1 12 9 355 355 2 9 6 4 359 355 355 358 358 355 356 357 355 355 358 358 357 356 356 357
222 218 237 278 329 304 326 336 338 342 343 358 355 360 351 349 330 325 335 328 347 355 353 360 5 7 2 2 358 356 354 356 359 359 358 357 357 357 358 359 359 357 357 358
225 234 260 274 282 308 330 334 340 349 346 347 351 1 358 342 336 338 314 321 341 349 353 2 5 3 357 358 357 356 354 354 356 360 1 358 357 358 358 359 0 360 359 359
237 238 256 269 291 313 325 334 340 343 348 350 347 351 352 354 347 348 343 346 350 355 1 3 5 357 352 356 355 354 356 355 357 359 2 0 359 359 358 358 359 2 1 360
235 244 249 261 285 299 316 324 318 320 343 346 343 333 341 356 352 356 346 344 352 355 3 2 1 351 354 355 352 353 355 356 359 0 1 2 0 359 358 358 359 360 2 2
238 242 257 268 285 301 303 314 310 316 337 341 336 331 341 345 350 349 343 352 351 355 359 4 3 354 355 353 350 351 355 355 358 360 360 0 1 359 358 357 359 1 2 4
241 251 255 265 280 294 313 319 328 322 326 327 329 334 339 343 342 339 343 354 355 359 0 5 359 355 357 351 347 349 354 354 356 357 359 360 1 360 359 357 358 360 2 4
250 256 258 272 278 300 300 305 308 319 322 319 320 322 336 344 337 334 343 355 2 1 7 2 359 356 355 346 344 349 351 352 353 353 357 359 360 0 0 360 358 358 0 3
242 248 251 263 273 283 290 296 303 309 326 324 311 311 328 339 331 329 336 349 356 357 360 1 1 358 352 342 342 348 349 349 350 352 355 357 359 0 0 2 1 358 358 2
234 246 253 265 276 285 298 301 304 305 316 322 312 301 307 319 318 322 329 337 342 347 350 354 357 357 352 343 342 345 347 346 347 350 351 353 356 359 359 360 2 1 359 1
245 252 256 266 277 287 296 301 298 298 303 309 313 300 308 309 313 314 322 325 330 337 340 344 349 350 350 347 343 342 341 344 345 347 347 349 352 357 358 358 359 2 2 1
251 258 263 271 285 295 299 299 291 296 296 307 308 299 305 297 305 313 322 323 324 329 331 338 340 339 347 348 345 340 336 339 342 342 343 345 348 353 356 357 358 359 2 0
253 259 268 278 285 292 292 288 292 292 291 301 305 304 304 303 309 315 316 322 320 323 325 331 333 334 339 344 344 338 332 333 338 339 339 341 345 349 354 355 357 357 358 359
261 263 272 277 281 287 288 275 276 284 288 292 296 300 303 307 309 310 315 317 321 321 323 324 327 331 335 340 340 337 332 331 332 334 335 336 340 345 350 350 354 355 355 357
272 273 277 287 299 292 287 283 280 282 284 288 290 294 300 302 304 305 310 311 320 320 320 321 323 331 332 336 337 335 332 330 328 329 332 333 333 340 345 347 351 352 353 354
270 274 283 290 290 287 292 289 289 287 286 286 290 296 297 301 304 303 311 313 314 321 320 321 325 329 330 333 332 333 333 329 328 327 328 330 331 334 340 343 346 350 348 350
270 273 280 286 285 281 286 288 286 285 288 288 288 288 305 309 309 308 311 316 327 331 327 324 321 325 330 330 329 329 332 332 330 327 323 326 330 331 335 338 343 345 346 346
271 277 279 286 288 295 292 291 290 278 285 285 278 284 312 308 311 317 318 321 324 323 323 324 323 327 329 329 327 329 335 336 331 327 323 324 327 328 330 334 338 341 342 342
269 278 284 287 285 309 304 306 301 279 277 292 315 309 311 312 316 321 319 320 320 325 324 322 321 327 328 328 329 332 332 330 331 328 324 323 324 326 329 332 335 337 341 339
263 277 289 287 295 308 321 320 331 335 323 307 305 302 310 316 317 316 316 314 315 320 325 325 321 324 323 317 319 325 324 326 331 330 327 325 325 327 328 332 332 334 336 337
268 276 284 287 288 294 302 311 314 315 305 310 309 305 300 303 305 308 311 312 313 319 315 318 321 319 324 318 315 320 325 329 329 327 325 326 326 327 327 329 329 331 333 335
266 271 277 278 289 291 293 290 298 304 304 301 304 305 303 301 301 303 307 312 313 317 317 319 321 316 318 320 332 333 325 328 328 325 325 325 324 326 327 327 327 329 329 329
Height
5940 5940 5938 5938 5938 5938 5936 5934 5933 5932 5929 5927 5923 5921 5918 5917 5914 5910 5906 5898 5893 5890 5885 5881 5878 5873 5870 5868 5863 5858 5855 5851 5846 5841 5835 5829 5821 5815 5809 5801 5792 5784 5776 5769
5940 5939 5939 5939 5938 5937 5937 5935 5933 5931 5929 5927 5924 5920 5919 5917 5914 5909 5905 5898 5892 5889 5886 5882 5877 5873 5870 5867 5862 5859 5855 5850 5844 5839 5833 5826 5820 5813 5805 5797 5789 5780 5772 5765
5938 5938 5939 5939 5938 5937 5937 5935 5933 5930 5929 5927 5926 5921 5916 5914 5911 5906 5902 5897 5893 5889 5886 5881 5877 5874 5871 5866 5862 5858 5853 5848 5843 5837 5831 5825 5817 5809 5802 5794 5786 5778 5770 5762
5938 5937 5938 5937 5936 5937 5936 5934 5932 5929 5927 5926 5925 5923 5919 5913 5910 5907 5904 5900 5894 5891 5887 5883 5879 5874 5870 5865 5861 5856 5852 5847 5841 5835 5828 5821 5813 5806 5799 5791 5784 5776 5767 5758
5937 5936 5937 5936 5936 5936 5935 5933 5931 5928 5926 5924 5923 5923 5919 5914 5911 5906 5902 5900 5896 5892 5887 5884 5878 5873 5868 5864 5860 5855 5850 5845 5839 5833 5826 5819 5812 5804 5797 5790 5782 5774 5765 5756
5935 5935 5935 5935 5935 5935 5933 5932 5929 5925 5924 5924 5922 5921 5919 5915 5911 5905 5901 5897 5894 5890 5886 5881 5875 5870 5867 5863 5858 5854 5849 5844 5837 5831 5824 5817 5810 5802 5795 5788 5780 5771 5762 5753
5934 5934 5934 5934 5933 5933 5934 5931 5927 5925 5923 5923 5920 5919 5917 5913 5910 5906 5900 5896 5891 5888 5883 5879 5874 5871 5867 5862 5858 5853 5847 5842 5836 5829 5822 5815 5809 5801 5793 5785 5777 5769 5760 5752
5932 5933 5933 5933 5933 5933 5933 5931 5928 5925 5924 5923 5920 5917 5915 5912 5909 5905 5901 5896 5891 5886 5881 5876 5872 5870 5865 5861 5856 5852 5846 5840 5834 5828 5821 5814 5808 5800 5792 5785 5776 5768 5759 5750
5931 5931 5932 5932 5931 5932 5931 5930 5929 5926 5923 5922 5920 5917 5914 5910 5907 5903 5901 5896 5890 5885 5880 5875 5871 5869 5865 5860 5856 5851 5845 5838 5832 5826 5820 5813 5806 5799 5791 5784 5776 5767 5758 5749
5930 5930 5931 5931 5931 5931 5930 5930 5928 5926 5922 5920 5919 5915 5913 5910 5904 5901 5898 5895 5891 5887 5881 5875 5871 5868 5862 5858 5854 5849 5843 5837 5831 5825 5819 5811 5804 5797 5790 5783 5775 5766 5758 5750
5928 5928 5930 5930 5930 5929 5929 5928 5926 5926 5922 5919 5917 5914 5912 5911 5906 5902 5898 5893 5890 5886 5880 5874 5870 5866 5861 5857 5853 5848 5842 5836 5830 5824 5818 5811 5803 5796 5789 5782 5774 5766 5758 5750
5926 5927 5927 5928 5928 5927 5927 5926 5924 5923 5921 5917 5915 5913 5910 5908 5905 5902 5898 5893 5888 5885 5878 5874 5869 5865 5860 5856 5852 5845 5840 5835 5829 5823 5817 5810 5803 5795 5789 5782 5774 5766 5759 5751
5922 5923 5925 5925 5926 5925 5924 5923 5921 5919 5919 5916 5913 5912 5909 5906 5902 5900 5897 5892 5887 5882 5876 5871 5867 5862 5858 5855 5850 5843 5838 5834 5828 5823 5816 5809 5803 5796 5789 5782 5774 5767 5760 5752
5918 5919 5920 5922 5922 5921 5921 5920 5917 5915 5915 5913 5911 5908 5907 5903 5900 5897 5893 5890 5885 5880 5875 5869 5864 5860 5856 5852 5847 5841 5836 5832 5826 5821 5815 5809 5803 5797 5790 5783 5776 5768 5761 5753
5915 5916 5916 5917 5917 5917 5916 5916 5913 5912 5912 5910 5908 5905 5904 5901 5897 5893 5890 5886 5883 5878 5873 5868 5862 5858 5854 5848 5843 5838 5834 5830 5824 5819 5814 5809 5802 5796 5789 5783 5777 5769 5761 5753
5911 5912 5912 5912 5913 5912 5911 5911 5909 5908 5908 5906 5905 5902 5900 5898 5894 5890 5887 5883 5879 5875 5870 5865 5862 5858 5851 5845 5840 5834 5831 5827 5822 5817 5813 5808 5802 5795 5788 5782 5776 5769 5761 5753
5909 5909 5909 5909 5908 5907 5906 5906 5904 5904 5904 5903 5901 5899 5897 5894 5890 5887 5884 5880 5875 5871 5866 5862 5859 5854 5848 5842 5837 5832 5828 5824 5819 5815 5811 5806 5800 5794 5787 5780 5774 5767 5761 5754
5904 5905 5905 5905 5904 5901 5902 5901 5900 5899 5899 5898 5897 5895 5892 5889 5886 5883 5880 5876 5870 5866 5862 5859 5855 5851 5845 5840 5835 5829 5824 5820 5816 5812 5808 5804 5799 5793 5786 5779 5772 5766 5760 5753
5900 5900 5900 5899 5898 5897 5897 5896 5896 5894 5895 5894 5892 5890 5887 5884 5882 5877 5874 5870 5866 5862 5858 5854 5850 5846 5842 5837 5832 5827 5821 5816 5812 5809 5805 5801 5796 5790 5784 5778 5771 5764 5757 5751
5896 5895 5895 5895 5894 5893 5893 5891 5890 5889 5891 5889 5887 5884 5880 5877 5876 5872 5868 5865 5862 5857 5853 5849 5844 5841 5838 5833 5828 5823 5817 5812 5807 5804 5801 5796 5792 5787 5781 5775 5767 5761 5755 5748
5891 5891 5890 5890 5890 5889 5889 5888 5886 5884 5887 5882 5881 5878 5875 5873 5869 5866 5863 5858 5854 5850 5847 5843 5840 5837 5832 5829 5824 5819 5814 5809 5803 5799 5796 5792 5788 5783 5778 5772 5766 5759 5752 5746
5886 5886 5886 5886 5885 5885 5883 5881 5881 5880 5876 5874 5871 5870 5868 5867 5864 5860 5857 5853 5850 5845 5842 5838 5835 5831 5827 5823 5819 5814 5809 5804 5799 5795 5792 5788 5784 5779 5773 5768 5761 5755 5749 5744
5881 5883 5882 5883 5881 5879 5877 5874 5871 5870 5870 5866 5867 5866 5863 5860 5857 5854 5852 5849 5843 5839 5836 5833 5829 5825 5821 5817 5813 5809 5804 5799 5795 5791 5788 5783 5779 5775 5769 5763 5756 5750 5744 5738
5876 5877 5878 5878 5878 5875 5872 5872 5868 5867 5866 5865 5864 5861 5858 5854 5850 5847 5845 5842 5838 5834 5831 5829 5825 5820 5815 5811 5807 5803 5799 5795 5790 5786 5782 5779 5774 5769 5763 5757 5752 5745 5737 5731
5871 5872 5873 5873 5873 5872 5870 5868 5865 5864 5862 5861 5859 5857 5854 5851 5848 5844 5840 5835 5833 5830 5826 5823 5820 5815 5809 5804 5800 5796 5793 5790 5786 5782 5778 5773 5768 5763 5758 5751 5745 5739 5732 5725
5865 5867 5867 5867 5867 5868 5867 5864 5862 5861 5859 5857 5855 5852 5848 5846 5843 5840 5836 5831 5827 5825 5821 5817 5813 5810 5804 5799 5796 5792 5788 5784 5781 5777 5772 5766 5762 5757 5750 5744 5739 5733 5725 5718